Home   Weather   Monza   Past weeks

Flag for Italy Past Weather in Monza, Italy — Yesterday and Last 2 Weeks

Now
27 °F

Clear.


Feels Like: 27 °F
Forecast: 26 / 45 °F
Wind: 1 mph from North

Location: Milan / Linate

Current Time: Jan 21, 2017 at 3:20:58 am

Latest Report: Jan 21, 2017 at 2:50 am


Visibility: 4 mi

Pressure: 30.48 "Hg

Humidity: 93%

Dew Point: 25 °F

Location of MonzaLocation

Past Weather in Monza — Graph

°F

Monza Temperature Yesterday

Maximum temperature yesterday: 45 °F (at 2:20 pm)
Minimum temperature yesterday: 25 °F (at 5:50 am)
Average temperature yesterday: 34 °F

High & Low Weather Summary for the Past Weeks

 TemperatureHumidityPressure
High48 °F (Jan 15, 2:50 pm)100% (Jan 9, 3:20 am)30.51 "Hg (Jan 9, 3:20 am)
Low21 °F (Jan 7, 7:20 am)18% (Jan 15, 2:50 pm)29.47 "Hg (Jan 13, 1:50 pm)
Average33 °F59%30.13 "Hg
* Reported Jan 6 1:20 am — Jan 21 1:50 am, Monza, Weather by CustomWeather, © 2017

Note: Actual official high and low records may vary slightly from our data, if they occured in-between our weather recording intervals... More about our weather records

Advertising

Monza Weather History for the Previous 24 Hours

Scroll right to see more
 ConditionsComfort  
Time TempWeatherWind HumidityBarometerVisibility
1:50 am
Sat, Jan 21
27 °FClear.No wind86%30.48 "Hg4 mi
1:20 am27 °FClear.1 mph86%30.48 "Hg4 mi
12:50 am27 °FClear.No wind93%30.48 "Hg4 mi
12:20 am28 °FClear.No wind86%30.48 "Hg4 mi
11:50 pm
Fri, Jan 20
28 °FClear.No wind80%30.48 "Hg10 mi
11:20 pm30 °FClear.No wind80%30.48 "Hg10 mi
10:50 pm32 °FClear.1 mph75%30.48 "Hg10 mi
10:20 pm32 °FClear.2 mph75%30.48 "Hg10 mi
9:50 pm30 °FClear.1 mph75%30.48 "Hg10 mi
9:20 pm32 °FClear.1 mph69%30.48 "Hg10 mi
8:50 pm32 °FClear.1 mph69%30.48 "Hg10 mi
8:20 pm34 °FClear.No wind65%30.48 "Hg10 mi
7:50 pm32 °FClear.No wind75%30.48 "Hg10 mi
7:20 pm34 °FClear.2 mph70%30.48 "Hg10 mi
6:50 pm37 °FPassing clouds.3 mph65%30.45 "HgN/A
6:20 pm36 °FClear.No wind60%30.45 "Hg10 mi
5:50 pm37 °FClear.No wind56%30.45 "Hg10 mi
5:20 pm39 °FClear.2 mph52%30.45 "Hg10 mi
4:50 pm39 °FSunny.2 mph52%30.45 "Hg10 mi
4:20 pm43 °FSunny.2 mph46%30.45 "Hg10 mi
3:50 pm43 °FSunny.2 mph46%30.45 "Hg10 mi
3:20 pm45 °FSunny.1 mph42%30.45 "Hg10 mi
2:50 pm45 °FSunny.No wind42%30.45 "Hg10 mi
2:20 pm45 °FSunny.No wind42%30.45 "Hg10 mi
1:50 pm43 °FSunny.2 mph46%30.48 "Hg10 mi
1:20 pm41 °FSunny.2 mph49%30.48 "Hg10 mi
12:50 pm41 °FSunny.2 mph49%30.48 "Hg10 mi
12:20 pm41 °FSunny.2 mph49%30.51 "Hg10 mi
11:50 am41 °FSunny.2 mph49%30.51 "Hg10 mi
11:20 am39 °FPassing clouds.3 mph56%30.51 "HgN/A
10:50 am37 °FSunny.2 mph60%30.51 "Hg10 mi
10:20 am36 °FSunny.2 mph70%30.51 "Hg10 mi
9:50 am36 °FSunny.2 mph70%30.51 "Hg10 mi
9:20 am32 °FSunny.1 mph75%30.51 "Hg10 mi
8:50 am28 °FClear.1 mph86%30.51 "Hg4 mi
8:20 am27 °FIce fog.1 mph93%30.51 "Hg2 mi
7:50 am27 °FIce fog.No wind86%30.51 "Hg2 mi
7:20 am27 °FClear.No wind86%30.48 "Hg10 mi
6:50 am27 °FClear.1 mph93%30.48 "Hg10 mi
6:20 am27 °FClear.1 mph93%30.48 "Hg10 mi
5:50 am25 °FClear.No wind93%30.48 "Hg10 mi
5:20 am27 °FClear.No wind86%30.48 "Hg10 mi
4:50 am27 °FClear.1 mph86%30.48 "Hg10 mi
4:20 am28 °FClear.No wind80%30.48 "Hg10 mi
3:50 am28 °FClear.2 mph80%30.51 "Hg10 mi
3:20 am30 °FClear.3 mph75%30.51 "Hg10 mi
Weather by CustomWeather, © 2017

See weather overviewHow to use our weather pages